Regional Weather Roundup
Issued by NWS Bismarck, ND

Home | Current Version | Previous Version | Text Only | Print | Product List | Glossary On
Versions: 1 2 3 4 5 6 7 8 9 10 11 12 13 14 15 16 17 18 19 20 21 22 23 24 25 26 27 28 29 30 31 32 33 34 35 36 37 38 39 40 41 42 43 44 45 46 47 48 49 50
000
ASUS43 KBIS 301010
RWRBIS

NWR BROADCAST TEXT
NATIONAL WEATHER SERVICE BISMARCK ND
500 AM CDT TUE JUN 30 2015

NOTE: "FAIR" INDICATES FEW OR NO CLOUDS BELOW 12,000 FEET WITH NO
SIGNIFICANT WEATHER AND/OR OBSTRUCTIONS TO VISIBILITY.


CITY           SKY/WX    TMP DP  RH WIND       PRES   REMARKS
WILLISTON      CLOUDY    70  59  68 NE6       29.94S HAZE
MINOT          CLOUDY    65  61  87 E6        29.93F
MINOT AFB      CLOUDY    65  65 100 SE6       29.93F
BISMARCK       CLOUDY    68  64  87 NE9       29.95R
DICKINSON      CLOUDY    68  60  75 NE7       29.94S
GARRISON         N/A     68  64  87 VRB5      29.94F
HETTINGER ARPT CLOUDY    66  60  81 E16       29.93S
JAMESTOWN      MOCLDY    61  58  90 CALM      29.95R
BEACH          FAIR      66  63  88 E7        29.95S
CROSBY         FAIR      63  63 100 N5        29.96S FOG
HARVEY         FAIR      63  63 100 S5        29.98R
HAZEN          CLOUDY    66  63  88 CALM      29.94S
LINTON         FAIR      66  66 100 E9        29.92F
MANDAN         CLOUDY    66  64  94 E10       29.95S
OAKES            N/A     59  59 100 CALM      29.95S
STANLEY        CLOUDY    66  66 100 SE5       29.94F
$$

CITY           SKY/WX    TMP DP  RH WIND       PRES   REMARKS
GRAND FORKS    PTCLDY    54  53  97 NW5       29.94R FOG
GRAND FORKS AF PTCLDY    55  54  94 N3        29.95R FOG
DEVILS LAKE    PTCLDY    57  54  88 E6        29.94F
FARGO          PTCLDY    58  55  90 NE5       29.93R FOG
CANDO          FOG       57  57 100 CALM      29.97S VSB 1
CAVALIER       FAIR      57  57 100 NW3       29.96R FOG
GRAFTON        FAIR      57  57 100 N3        29.96R
LANGDON        FOG       55  55 100 NE6       29.97F VSB<1/4
ROLLA          FOG       59  59 100 CALM      29.99S VSB<1/4
WALHALLA       FAIR      57  57 100 MISG      29.97R FOG
$$

CITY           SKY/WX    TMP DP  RH WIND       PRES   REMARKS
ABERDEEN       CLOUDY    65  62  90 N3        29.95R
MOBRIDGE       CLOUDY    68  66  93 SE9       29.88F
BUFFALO          N/A     64  57  78 W8        29.89R
RAPID CITY     MOCLDY    69  55  60 W3        29.96F
SIDNEY         CLOUDY    70  57  64 N6        29.93S
WOLF POINT     CLOUDY    67  52  58 NE6       29.93F HAZE
GLENDIVE       CLOUDY    68  55  64 NE8       29.95S
MILES CITY     CLOUDY    73  59  61 NE9       29.90F
BAKER          CLOUDY    70  60  70 E5        29.96S
$$

CITY           SKY/WX    TMP DP  RH WIND       PRES   REMARKS
BILLINGS       MOCLDY    69  57  65 CALM      30.02R
GREAT FALLS    PTCLDY    68  58  70 SW7       29.99S
REGINA         LGT RAIN  61  59  94 NW7       29.99R SMOKE
ESTEVAN          N/A     63  61  94 VRB2      29.93F SMOKE
$$




USA.gov is the U.S. government's official web portal to all federal, state and local government web resources and services.